Location: Ferchesar
(52.6477°N, 12.4298°E)
Time: 04:41:39
(UTC+01:00)

Tiros 1 - Pass Details

Date: 11 December 2021
Orbit: 629 x 664 km, 48.4° (Epoch: 21 January)

Event Time Altitude Azimuth Distance (km) Brightness Sun altitude
Rises 19:24:29 0° 268° (W) 2,925 11.7 -30.3°
Reaches altitude 10° 19:26:51 10° 262° (W) 2,020 10.6 -30.6°
Enters shadow 19:29:38 32° 241° (WSW) 1,091 8.7 -31.0°
Maximum altitude 19:31:19 47° 189° (S) 843 - -31.3°
Drops below altitude 10° 19:35:48 10° 116° (ESE) 2,037 - -32.0°
Sets 19:38:12 0° 111° (ESE) 2,952 - -32.3°
